Terminal Aerodrome Forecast
Issued by NWS

Home | Current Version | Previous Version | Text Only | Print | Product List | Glossary On
Versions: 1 2 3 4 5 6 7 8 9 10 11 12 13 14 15 16 17 18 19 20 21 22 23 24 25 26 27 28 29 30 31 32 33 34 35 36 37 38 39 40 41 42
000
FTAK31 PAFA 271800 AAA
TAFATA
TAF AMD
PATA 271800Z 2718/2818 00000KT P6SM BCFG FEW002
      TEMPO 2718/2721 2SM BR BKN002=

USA.gov is the U.S. government's official web portal to all federal, state and local government web resources and services.